Date,TemperatureHighF,TemperatureAvgF,TemperatureLowF,DewpointHighF,DewpointAvgF,DewpointLowF,HumidityHigh,HumidityAvg,HumidityLow,PressureMaxIn,PressureMinIn,WindSpeedMaxMPH,WindSpeedAvgMPH,GustSpeedMaxMPH,PrecipitationSumIn
2013-8-1,88.2,77.0,66.4,73.5,69.2,64.2,100,79,46,30.12,29.99,4,0,5,0.00
2013-8-2,87.8,79.1,70.7,79.5,74.3,69.1,96,86,73,30.02,29.90,5,0,8,0.00
2013-8-3,86.0,78.2,68.5,78.5,74.3,68.1,100,88,67,30.14,29.92,13,1,16,4.28
2013-8-4,78.6,75.4,73.2,76.7,74.1,71.5,100,96,84,30.14,30.01,4,0,8,0.08
2013-8-5,91.4,84.8,73.4,80.2,77.6,71.9,100,80,63,30.05,29.88,5,1,8,0.22
2013-8-6,93.9,83.6,74.5,79.2,76.2,71.3,94,79,57,29.94,29.83,5,1,8,0.00
2013-8-7,92.1,82.5,74.1,81.2,76.7,73.0,97,83,64,29.98,29.85,7,1,9,0.00
2013-8-8,84.2,76.0,68.0,76.6,73.0,67.7,100,91,71,30.02,29.87,14,1,21,4.33
2013-8-9,82.6,75.8,70.7,75.3,72.6,70.7,100,90,70,30.05,29.94,7,1,10,0.17
2013-8-10,82.8,76.3,70.5,74.9,72.1,70.4,100,87,72,30.12,30.04,5,1,9,0.00
2013-8-11,86.9,77.7,71.1,76.6,73.2,70.1,100,87,64,30.11,30.02,5,0,8,0.00
2013-8-12,84.2,75.6,70.9,77.1,72.9,69.7,100,92,74,30.10,29.97,14,1,19,0.00
2013-8-13,78.4,73.2,68.4,75.4,71.7,66.7,100,95,81,30.08,29.99,4,0,7,0.00
2013-8-14,77.7,70.3,61.0,67.0,63.3,59.5,100,80,55,30.16,30.07,4,1,8,0.00
2013-8-15,77.4,67.2,56.7,62.4,59.2,55.9,100,78,51,30.15,30.03,4,0,8,0.00
2013-8-16,77.4,67.5,60.4,63.6,60.9,59.0,96,80,58,30.14,30.05,4,0,8,0.00
2013-8-17,78.4,66.9,55.2,65.1,60.7,54.4,100,82,57,30.16,30.06,5,0,7,0.00
2013-8-18,81.9,66.6,59.4,69.5,63.4,59.1,100,90,54,30.16,30.07,3,0,4,0.00
2013-8-19,80.1,67.3,61.2,70.7,64.6,61.2,100,92,65,30.14,30.03,4,0,4,0.00
2013-8-20,83.8,69.4,61.5,72.5,65.4,61.5,100,88,53,30.12,30.04,4,0,6,0.00
2013-8-21,86.9,70.4,62.1,72.5,66.4,61.8,100,88,53,30.14,30.06,6,0,11,0.00
2013-8-22,84.7,71.3,64.2,73.6,68.5,63.2,100,91,66,30.14,30.03,4,0,7,0.00
2013-8-23,81.7,71.9,65.8,74.5,69.6,65.6,100,93,72,30.11,30.03,2,0,3,0.00
2013-8-24,73.2,70.8,69.3,70.4,69.9,69.0,100,97,90,30.13,30.07,1,0,2,0.00
2013-8-25,90.7,79.3,68.7,75.4,71.8,68.3,100,80,48,30.23,30.15,4,0,6,0.00
2013-8-26,90.7,78.5,69.4,75.7,71.4,68.2,100,81,52,30.23,30.12,3,0,5,0.00
2013-8-27,88.3,78.5,63.9,74.0,68.7,63.0,100,74,49,30.16,30.05,8,1,11,0.00
2013-8-28,90.3,77.5,65.7,74.9,70.3,65.4,100,81,51,30.11,30.04,7,1,12,0.00
2013-8-29,92.7,80.0,68.0,76.5,71.4,67.7,100,78,47,30.10,30.01,7,1,9,0.00
2013-8-30,93.4,81.2,69.6,77.8,72.2,69.4,100,77,47,30.04,29.91,8,1,12,0.00
2013-8-31,95.0,81.7,69.4,80.0,72.0,68.2,100,76,45,29.95,29.84,8,1,11,0.00